{"data":{"norad_id":62251,"intl_designator":"2024-232Q","name":"QIANFAN-50","alt_names":[],"object_type":"PAYLOAD","status":"ACTIVE","operator":null,"country":"PRC","launch_date":"2024-12-05","launch_site_code":"TAISC","launch_vehicle":null,"mission":null,"orbit_class":"UNKNOWN","rcs_meters":null,"size_class":null,"mass_kg":null,"dimensions":null,"purposes":[],"wikipedia_slug":null,"has_3d_model":false,"image_url":null,"decayed_at":null,"tle_current":{"epoch":"2026-05-25T04:11:37.077216Z","epoch_age_seconds":53900,"freshness":"FRESH","line1":"1 62251U 24232Q   26145.17473469  .00000121  00000+0  16782-3 0  9998","line2":"2 62251  89.0106  24.8269 0017863  83.7175 276.6010 13.51004679 89936","mean_motion":13.51004679,"eccentricity":0.0017863,"inclination_deg":89.0106,"raan_deg":24.8269,"arg_perigee_deg":83.7175,"mean_anomaly_deg":276.601,"bstar":0.00016782,"rev_number":8993,"period_min":106.58734365494,"perigee_km":1055.2623488186,"apogee_km":1081.8664342099,"semimajor_km":7446.7013915143,"source":"CELESTRAK","updated_at":"2026-05-25T13:38:02.869004Z"}}}